Torna al catalogo

DELTA 1 R/B

AttivoPO
NORAD 3670·ROCKET BODY·🇺🇸 United States

Lanciato Jan 30, 1969 da Vandenberg Space Force Base

Loading…

Prossimi Passaggi (prossime 24 ore)

TLE

AggiornatoSource: Space-Track

Epoca: Sep 14, 2026, 07:17 UTC

1 03670U 69009B   26257.30349367  .00000330  00000-0  20726-3 0  9993
2 03670  88.4084  95.0861 1630748 100.6606 278.1557 11.46806733389416

Traccia DELTA 1 R/B in tempo reale con AllMySat

Download on the App Store